This is the latest recevied weather packets stored in our database for station/object E20EHQ-13. If no packets are shown the sender has not sent any weather packets the latest 10 day(s).
| Time | Temp. | Humidity | Pressure | Rain* | Wind** | Luminosity | Snow |
|---|---|---|---|---|---|---|---|
| 1778046779 | 33.89° C | 64% | 1007.1 hPa | 0 mm | - | 607 W/m² | - |
| 1778046479 | 33.89° C | 64% | 1007.2 hPa | 0 mm | - | 794 W/m² | - |
| 1778045280 | 33.89° C | 64% | 1007.5 hPa | 0 mm | - | 603 W/m² | - |
| 1778044679 | 33.89° C | 65% | 1007.8 hPa | 0 mm | - | 655 W/m² | - |
| 1778044379 | 33.33° C | 65% | 1007.9 hPa | 0 mm | - | 367 W/m² | - |
| 1778044079 | 33.33° C | 66% | 1007.9 hPa | 0 mm | - | 313 W/m² | - |
| 1778043479 | 33.33° C | 66% | 1008.1 hPa | 0 mm | - | 262 W/m² | - |
| 1778043179 | 33.89° C | 64% | 1008.3 hPa | 0 mm | - | 279 W/m² | - |
| 1778042879 | 33.89° C | 65% | 1008.3 hPa | 0 mm | - | 274 W/m² | - |
| 1778042279 | 33.89° C | 64% | 1008.4 hPa | 0 mm | - | 347 W/m² | - |
| 1778041979 | 33.33° C | 64% | 1008.5 hPa | 0 mm | - | 0 W/m² | - |
| 1778041680 | 33.33° C | 64% | 1008.5 hPa | 0 mm | - | 0 W/m² | - |
| 1778041109 | 33.33° C | 63% | 1008.5 hPa | 0 mm | - | 616 W/m² | - |
| 1778040809 | 33.33° C | 64% | 1008.6 hPa | 0 mm | - | 713 W/m² | - |
| 1778040510 | 33.33° C | 63% | 1008.7 hPa | 0 mm | - | 786 W/m² | - |
| 1778040210 | 33.33° C | 65% | 1008.8 hPa | 0 mm | - | 882 W/m² | - |
| 1778039910 | 32.78° C | 65% | 1008.9 hPa | 0 mm | - | 866 W/m² | - |
| 1778039609 | 32.78° C | 67% | 1008.9 hPa | 0 mm | - | 857 W/m² | - |
| 1778039309 | 32.78° C | 68% | 1008.9 hPa | 0 mm | - | 843 W/m² | - |
| 1778039010 | 32.22° C | 68% | 1009 hPa | 0 mm | - | 836 W/m² | - |
| 1778038711 | 32.22° C | 69% | 1009.1 hPa | 0 mm | - | 812 W/m² | - |
| 1778038410 | 32.22° C | 70% | 1009.1 hPa | 0 mm | - | 756 W/m² | - |
| 1778038110 | 32.22° C | 72% | 1009.1 hPa | 0 mm | - | 680 W/m² | - |
| 1778037810 | 31.67° C | 73% | 1009.2 hPa | 0 mm | - | 686 W/m² | - |
| 1778037510 | 31.67° C | 74% | 1009.3 hPa | 0 mm | - | 491 W/m² | - |
* Rain latest hour (hover to see other rain measurements)
** Current wind speed in m/s (hover to see current wind gust speed)